Temperature
15 15 15 15 15 15 15 15 15 15 15 15 15 15 15 15 15 15 15 15 15 15 15 15 15 15 15 15 15 15 15 15 14 14 14 15 15 15 15 15 15 15 15
15 15 15 15 15 15 15 15 15 15 15 15 15 15 15 15 15 15 15 15 15 15 15 15 14 14 14 14 14 14 14 14 14 14 14 14 14 15 15 15 15 15 15
15 15 15 15 15 15 15 15 15 15 15 15 15 15 15 15 15 15 14 14 14 14 14 14 14 14 14 14 14 14 14 14 14 14 14 14 14 14 14 14 14 14 14
15 15 15 15 15 15 15 15 15 15 15 15 15 15 15 14 14 14 14 14 14 14 14 14 14 14 14 14 14 14 14 14 14 14 14 14 14 14 14 14 14 14 14
15 15 15 15 15 15 15 15 15 15 15 15 14 14 14 14 14 14 14 14 14 14 14 14 14 13 13 13 13 13 13 13 14 13 14 14 13 13 13 14 13 14 14
15 15 14 14 14 14 14 14 14 14 14 14 14 14 14 14 14 14 14 14 13 13 13 13 13 13 13 13 13 13 13 13 13 13 13 13 13 13 13 13 13 13 13
14 14 14 14 14 14 14 14 14 14 14 14 14 14 14 14 14 13 13 13 13 13 13 13 13 13 13 13 13 13 13 13 13 13 13 13 13 13 13 13 13 13 13
14 14 14 14 14 14 14 14 14 14 14 14 14 14 13 13 13 13 13 13 13 13 13 13 13 13 13 13 13 13 13 13 13 13 13 13 13 13 13 13 13 13 13
14 14 14 14 14 14 14 14 13 13 13 13 13 13 13 13 13 13 13 13 13 13 13 13 13 13 13 13 13 13 12 12 13 12 12 12 12 12 13 13 13 13 12
14 14 14 14 14 13 13 13 13 13 13 13 13 13 13 13 12 12 13 13 13 12 12 12 13 13 12 12 12 12 12 12 12 12 12 12 12 12 12 12 12 12 12
14 14 14 14 13 13 13 13 13 13 13 13 13 13 13 12 12 12 12 12 12 12 12 12 12 12 12 12 12 12 12 12 12 12 12 12 12 12 12 12 12 12 12
14 14 14 13 13 13 13 13 13 13 13 13 13 12 12 12 12 12 12 12 12 12 12 12 12 12 12 12 12 12 12 12 12 12 12 12 12 12 12 12 12 12 12
14 14 13 13 13 13 13 13 13 13 13 12 12 12 12 12 12 12 12 12 11 12 12 12 12 12 12 12 12 12 12 12 12 12 11 11 11 11 11 11 11 11 11
13 13 13 13 13 13 13 13 13 12 12 12 12 12 12 12 12 12 12 12 11 11 11 11 11 11 11 11 11 12 12 12 11 11 11 11 11 11 11 11 11 11 11
13 13 13 13 13 13 13 13 12 12 12 12 12 12 12 12 12 12 12 11 11 11 11 11 11 11 11 11 11 11 11 11 11 11 11 11 11 11 11 11 11 11 11
13 13 13 13 13 13 12 12 12 12 12 12 12 12 12 12 11 11 11 11 11 11 10 11 11 11 11 10 10 11 11 11 11 11 11 11 11 11 11 11 11 11 11
13 13 13 13 13 12 12 12 12 12 12 12 11 11 11 11 11 11 11 11 11 11 10 10 10 10 10 10 10 10 10 10 10 10 10 10 10 10 10 10 10 10 10
13 12 12 12 12 12 12 12 12 12 12 11 11 11 11 11 11 11 11 11 10 10 10 10 10 10 10 10 10 10 10 10 10 10 10 10 10 10 10 10 10 10 10
12 12 12 12 12 12 12 11 11 11 11 11 11 11 11 11 11 11 10 10 10 10 10 10 10 10 10 9 9 10 10 10 10 10 10 10 10 10 10 10 10 10 10
12 12 12 12 11 11 11 11 11 11 11 11 11 10 10 10 10 10 10 10 10 10 9 9 9 9 9 9 9 9 9 9 9 9 9 9 9 9 9 9 9 9 9
11 11 11 11 11 11 11 11 11 11 11 11 10 10 10 10 10 10 10 10 9 9 9 9 9 9 9 9 9 9 9 9 9 9 9 9 9 9 9 9 9 9 9
11 11 11 11 11 10 10 10 10 10 10 10 10 10 10 10 10 10 9 9 9 9 9 9 8 8 9 9 8 8 8 8 8 8 8 8 8 8 8 8 8 8 9
10 10 10 10 10 10 10 10 10 10 10 10 10 10 9 9 9 9 9 9 9 9 8 8 8 8 8 8 8 8 8 8 8 8 8 8 8 8 8 8 8 8 8
10 10 10 10 10 10 9 9 10 9 9 9 9 9 9 9 9 9 9 9 8 8 8 8 8 8 8 8 8 8 8 7 7 8 7 7 8 8 8 8 8 8 8
10 10 9 9 9 9 9 9 9 9 9 9 9 9 8 8 8 8 8 8 8 8 8 8 8 8 7 7 7 7 7 7 7 7 7 7 7 7 7 8 7 7 7
9 9 9 9 8 8 8 8 8 8 8 8 8 8 8 8 8 8 8 7 7 7 7 7 7 7 7 7 7 7 7 7 7 7 7 7 7 6 6 7 7 7 7
Wind_Speed
2 2 3 4 4 4 4 3 4 4 4 5 5 5 5 5 5 4 4 6 7 7 7 7 8 8 8 7 8 7 7 8 8 7 7 7 7 7 6 6 6 6 6
3 3 3 3 4 4 4 4 4 3 3 3 4 4 4 4 5 5 4 5 7 7 7 7 7 7 7 7 6 7 7 7 7 8 8 8 8 7 6 5 6 6 6
4 4 3 2 2 4 4 4 4 4 3 3 3 3 3 3 4 4 4 4 4 5 6 6 6 6 6 6 6 6 6 6 7 8 8 8 8 9 8 7 6 5 5
5 4 2 2 3 4 4 3 3 3 3 3 2 2 2 3 3 3 3 4 4 4 4 4 5 5 5 5 6 6 6 7 7 7 7 7 8 8 8 7 7 5 4
6 5 3 2 3 3 3 2 3 2 2 2 2 2 2 2 2 3 4 4 4 4 3 3 3 4 4 3 4 4 5 5 6 6 6 6 6 7 6 6 6 6 5
6 6 4 3 4 3 3 2 2 2 1 1 2 3 2 2 2 2 2 3 4 4 3 3 3 3 3 2 3 3 4 4 5 5 6 6 6 6 5 5 5 5 5
6 5 4 3 3 2 2 2 2 3 2 2 3 3 4 3 3 2 2 2 3 3 3 3 3 3 3 3 2 3 4 4 4 5 5 5 5 5 5 4 4 4 4
4 5 4 3 2 2 3 2 2 2 1 2 2 2 3 4 3 3 2 2 2 2 3 3 2 2 2 2 2 2 3 3 3 3 3 3 4 4 4 4 4 3 3
3 4 4 3 3 2 2 1 2 2 1 1 1 2 2 1 2 3 2 2 2 2 2 2 2 2 2 1 1 1 1 1 2 2 2 2 2 2 3 3 3 3 3
2 3 4 4 3 2 2 1 1 1 2 1 1 1 1 2 1 2 3 3 3 2 2 1 1 1 1 1 1 1 1 1 0 0 1 1 2 2 2 2 2 2 2
1 2 3 3 3 2 2 1 2 2 1 1 1 0 1 1 1 2 2 4 3 3 2 1 0 1 1 1 1 1 1 2 2 2 1 0 1 1 1 1 2 1 1
1 1 2 3 3 2 2 2 2 2 1 1 1 1 1 1 1 1 1 2 3 3 3 2 1 1 1 1 2 2 2 2 2 3 2 2 1 1 1 1 1 1 0
1 2 1 2 2 2 2 2 2 1 1 1 1 1 1 1 1 2 2 1 1 3 3 2 2 2 2 2 3 3 3 3 2 2 3 3 2 2 2 2 1 1 1
3 2 2 2 2 2 2 2 2 1 1 1 1 1 1 1 1 2 2 2 0 2 2 3 2 2 3 3 3 3 3 4 3 3 3 4 4 4 4 3 2 2 2
2 2 2 3 2 2 2 2 1 1 1 1 1 1 0 1 1 1 2 3 3 1 3 3 2 3 3 3 4 3 3 4 4 4 4 4 5 4 4 4 3 3 3
2 2 2 2 2 2 2 2 1 1 1 0 0 0 0 1 0 0 1 1 2 3 3 3 3 3 2 3 3 3 4 4 4 4 4 4 4 4 4 4 4 4 4
2 2 3 3 3 2 2 2 2 1 1 0 0 0 1 0 0 0 0 1 1 2 2 3 2 2 2 2 3 3 3 3 3 4 4 4 4 4 4 4 4 4 4
2 3 3 3 2 2 3 3 2 2 2 1 1 0 1 1 0 0 0 0 1 1 2 2 2 2 2 2 2 2 3 3 3 4 4 4 4 4 4 4 3 3 4
2 2 3 3 3 3 3 3 3 2 2 2 2 2 2 1 1 1 1 1 1 1 0 1 2 2 2 2 2 3 3 2 4 4 4 5 5 5 5 4 3 3 3
2 2 2 2 2 2 2 2 2 2 2 2 2 3 3 3 3 2 1 1 1 1 1 0 1 2 2 2 1 2 3 2 3 3 4 4 5 5 5 5 5 5 5
2 2 2 2 1 1 2 2 2 2 1 1 1 1 2 2 2 2 1 1 1 1 1 1 1 1 2 2 2 2 2 3 3 2 2 2 3 3 4 6 7 7 6
1 1 1 2 1 1 1 1 1 2 1 1 1 1 2 1 2 2 2 2 2 2 2 2 2 3 4 3 2 2 2 2 3 2 1 3 2 3 4 5 7 7 7
1 1 0 1 1 1 1 0 1 2 1 1 1 1 2 2 1 1 2 2 2 3 3 3 3 4 4 4 3 3 3 3 4 3 1 4 2 3 4 6 7 7 7
2 1 1 0 1 0 1 1 1 1 1 1 1 2 2 2 2 1 1 1 2 3 3 3 4 5 4 4 4 4 5 4 3 3 2 3 3 3 4 4 7 8 8
2 2 2 1 1 1 1 2 2 1 0 1 1 1 1 2 3 2 0 1 2 4 4 3 4 4 5 5 3 1 1 2 3 3 2 2 2 2 3 3 5 7 7
2 1 1 1 1 1 0 1 1 1 1 1 2 2 2 2 3 2 0 1 2 3 3 4 4 5 4 4 4 2 3 3 2 3 2 2 2 1 2 2 2 3 4
Wind_Direction
98 76 63 56 50 49 56 54 51 56 63 66 71 73 65 64 65 60 57 62 60 60 70 73 69 68 63 59 59 62 63 61 66 65 64 69 80 90 96 97 94 91 87
107 89 73 63 55 54 61 67 62 63 64 70 66 69 70 69 73 68 58 54 57 59 62 68 65 62 64 62 60 61 61 60 64 65 64 65 72 78 82 89 88 86 84
109 97 87 70 62 63 60 59 54 57 60 56 44 54 70 72 72 74 70 56 47 50 57 64 64 62 62 62 63 63 64 66 65 66 65 67 71 73 72 74 79 80 82
114 102 94 74 69 71 67 59 46 51 46 45 34 27 42 60 65 70 71 60 51 43 43 53 58 55 59 59 65 67 67 69 68 67 67 68 70 73 71 69 68 69 74
115 109 107 95 86 73 61 58 52 68 60 43 39 37 28 39 51 66 60 53 49 44 35 30 43 47 47 51 64 71 69 73 72 69 69 70 70 73 73 70 65 60 59
110 107 103 95 88 71 52 46 54 45 55 42 52 36 16 18 40 52 55 54 44 35 38 36 30 20 17 27 62 78 77 73 73 74 73 74 70 68 68 68 65 61 55
112 108 109 100 90 82 79 67 67 58 36 40 55 15 360 14 33 28 37 43 31 21 26 29 28 18 4 18 56 75 81 77 71 74 72 72 69 63 57 60 64 64 57
122 123 121 118 111 93 76 69 73 71 26 44 96 72 8 355 357 5 8 16 5 10 11 12 21 18 24 42 50 62 69 81 82 78 70 72 67 57 54 52 51 53 57
124 122 124 127 126 122 118 104 102 102 81 360 73 125 128 239 310 333 344 353 352 357 342 358 21 6 18 51 41 35 47 65 82 79 68 63 58 51 53 53 41 41 44
136 134 134 131 134 128 127 139 107 108 116 53 350 46 154 159 144 323 329 338 339 334 324 344 8 6 1 49 26 349 339 321 201 128 52 48 40 39 54 48 31 26 42
152 151 147 139 139 144 144 125 99 95 112 132 139 99 74 63 104 144 290 321 335 324 312 295 272 324 349 334 295 306 317 294 260 236 237 321 0 8 10 8 16 19 38
238 197 160 152 152 149 148 153 146 131 126 117 114 116 136 134 176 153 203 297 312 310 317 310 296 282 293 272 274 293 286 291 273 250 248 254 265 300 324 340 5 10 343
238 236 194 159 158 162 154 142 139 148 142 132 140 149 151 171 172 161 150 223 306 310 322 321 305 300 316 295 276 281 272 267 274 254 248 253 254 266 281 289 301 301 325
219 214 177 161 154 156 152 138 135 159 133 141 133 134 132 179 173 163 157 152 13 329 327 297 313 299 316 306 293 285 272 262 260 260 258 261 258 259 256 260 277 269 272
205 195 175 163 165 152 144 140 143 173 143 159 161 161 154 236 194 179 165 159 158 224 281 288 303 302 304 301 299 293 269 264 259 254 266 271 267 259 252 250 257 254 256
180 177 171 166 166 151 142 143 160 178 132 147 155 91 12 322 341 147 169 168 164 180 231 262 263 279 294 305 311 301 270 272 257 261 270 278 275 270 268 258 254 246 245
166 175 186 172 174 171 160 160 182 173 171 231 11 128 293 328 11 357 76 117 167 167 214 271 279 302 305 315 320 310 298 279 266 272 276 288 288 277 267 265 256 247 247
177 185 177 171 183 189 179 173 193 195 193 213 239 205 279 317 355 326 28 266 232 214 199 258 294 307 296 297 311 320 312 299 281 278 277 290 303 296 276 269 272 263 251
165 161 154 165 189 200 190 187 186 190 202 218 226 226 244 220 273 279 259 257 270 288 242 225 286 298 301 322 336 323 325 317 305 297 289 290 295 293 283 270 271 271 260
165 165 168 177 179 188 193 194 185 184 210 236 239 232 231 216 219 229 239 240 250 284 315 281 285 296 295 302 321 307 314 317 312 312 297 289 289 290 283 277 270 265 255
165 169 161 170 185 195 208 205 203 184 205 266 293 269 246 231 231 229 250 235 202 212 245 260 281 304 289 298 279 259 279 299 302 294 297 292 281 277 274 277 271 262 250
123 121 153 176 187 225 273 213 195 187 195 221 285 298 281 256 278 281 286 264 210 212 230 232 252 259 263 262 261 261 254 285 289 280 258 281 259 262 260 256 261 259 250
121 104 163 178 199 248 265 322 189 174 192 219 232 250 290 309 307 272 294 312 295 271 244 229 238 249 249 248 239 252 246 241 255 265 260 276 270 266 265 264 257 250 245
157 160 165 198 186 350 35 40 89 138 168 226 233 229 246 290 301 283 272 306 292 289 269 254 241 249 250 243 234 239 240 252 262 264 217 255 274 268 279 261 259 253 247
160 164 160 152 170 305 33 54 72 124 141 281 273 256 242 260 309 344 26 299 305 307 313 297 288 283 282 281 272 256 256 255 272 268 236 217 258 275 281 269 263 258 253
163 154 140 170 210 264 305 94 83 152 217 286 303 305 305 322 328 339 262 241 294 296 314 328 327 317 307 301 293 242 223 231 256 265 235 211 235 252 289 271 260 259 257
Height
1538 1538 1538 1538 1537 1537 1537 1536 1536 1536 1535 1535 1534 1533 1533 1532 1531 1530 1529 1528 1527 1526 1525 1524 1524 1523 1522 1522 1521 1520 1520 1519 1519 1518 1518 1518 1517 1517 1518 1518 1519 1520 1520
1539 1538 1538 1538 1538 1538 1537 1537 1537 1536 1536 1535 1535 1534 1533 1533 1532 1531 1530 1529 1528 1527 1526 1525 1524 1524 1523 1522 1521 1521 1520 1520 1520 1519 1519 1518 1518 1518 1518 1519 1519 1520 1520
1539 1539 1538 1538 1538 1538 1538 1538 1537 1537 1536 1536 1535 1535 1534 1533 1532 1532 1531 1530 1529 1528 1527 1525 1525 1524 1523 1523 1522 1522 1521 1521 1520 1520 1520 1519 1519 1519 1519 1519 1519 1520 1520
1539 1539 1539 1538 1538 1538 1538 1538 1537 1537 1536 1536 1536 1535 1535 1534 1533 1532 1531 1531 1529 1528 1527 1526 1525 1524 1523 1523 1522 1522 1522 1521 1521 1521 1521 1520 1520 1520 1519 1519 1519 1520 1520
1539 1539 1539 1539 1538 1538 1538 1538 1537 1537 1536 1536 1536 1535 1535 1534 1534 1533 1532 1531 1530 1529 1528 1527 1525 1524 1523 1522 1522 1522 1522 1522 1522 1522 1521 1521 1521 1520 1520 1520 1520 1520 1520
1539 1539 1539 1539 1538 1538 1538 1537 1537 1537 1536 1536 1535 1535 1535 1534 1534 1533 1533 1532 1531 1530 1529 1527 1525 1524 1522 1521 1521 1522 1522 1522 1522 1522 1522 1521 1521 1521 1521 1520 1520 1520 1520
1539 1539 1539 1538 1538 1538 1537 1537 1537 1536 1536 1536 1535 1535 1535 1534 1534 1534 1533 1532 1531 1530 1529 1528 1526 1523 1521 1519 1520 1522 1523 1523 1523 1523 1523 1522 1522 1521 1521 1520 1520 1520 1520
1539 1539 1538 1538 1538 1537 1537 1537 1536 1536 1535 1535 1535 1534 1534 1535 1534 1534 1533 1532 1532 1531 1529 1528 1526 1524 1522 1521 1521 1522 1523 1523 1523 1523 1523 1523 1522 1521 1521 1520 1520 1520 1519
1538 1538 1538 1537 1537 1537 1536 1536 1536 1535 1535 1535 1535 1535 1535 1534 1533 1534 1533 1532 1531 1530 1529 1528 1527 1525 1524 1523 1523 1523 1523 1523 1523 1523 1523 1523 1522 1521 1520 1520 1520 1519 1519
1537 1537 1537 1537 1536 1536 1536 1535 1535 1535 1535 1535 1534 1534 1535 1534 1534 1533 1532 1532 1531 1530 1529 1528 1527 1526 1525 1524 1524 1524 1524 1523 1523 1523 1523 1522 1522 1521 1520 1520 1519 1518 1518
1536 1536 1535 1535 1535 1535 1535 1535 1534 1534 1534 1534 1534 1533 1533 1533 1533 1532 1531 1530 1530 1529 1528 1527 1527 1526 1525 1525 1524 1524 1523 1523 1523 1523 1522 1522 1521 1521 1520 1519 1518 1518 1517
1534 1534 1534 1534 1534 1534 1534 1533 1533 1533 1533 1533 1533 1532 1532 1532 1532 1531 1530 1529 1528 1528 1527 1527 1526 1525 1525 1524 1524 1523 1522 1522 1522 1521 1521 1521 1520 1520 1519 1519 1518 1517 1517
1532 1532 1532 1532 1532 1532 1532 1532 1532 1532 1532 1531 1531 1531 1531 1531 1531 1530 1529 1528 1528 1527 1526 1526 1525 1524 1524 1523 1523 1522 1521 1521 1520 1520 1520 1519 1519 1519 1518 1518 1517 1517 1516
1530 1530 1530 1530 1531 1531 1531 1531 1531 1530 1530 1530 1530 1529 1529 1529 1529 1529 1528 1527 1526 1526 1525 1524 1524 1523 1522 1522 1521 1520 1520 1519 1519 1519 1518 1518 1518 1517 1517 1516 1516 1515 1515
1528 1528 1528 1528 1529 1529 1529 1529 1529 1529 1529 1529 1528 1528 1528 1528 1527 1527 1527 1526 1526 1524 1523 1522 1522 1521 1521 1520 1519 1518 1518 1517 1517 1517 1516 1516 1516 1515 1515 1515 1514 1514 1514
1526 1526 1526 1526 1527 1527 1527 1527 1527 1527 1527 1527 1527 1526 1526 1526 1525 1525 1525 1524 1523 1523 1521 1520 1520 1519 1519 1518 1517 1516 1516 1515 1515 1515 1514 1514 1513 1513 1513 1513 1512 1512 1512
1523 1524 1524 1524 1524 1525 1525 1525 1525 1526 1525 1525 1525 1525 1524 1524 1523 1523 1522 1522 1521 1520 1519 1518 1518 1517 1516 1516 1515 1514 1513 1513 1512 1512 1512 1512 1511 1511 1511 1510 1510 1510 1510
1521 1521 1521 1522 1522 1522 1523 1523 1523 1523 1523 1523 1523 1523 1522 1522 1522 1521 1520 1519 1519 1518 1517 1516 1515 1515 1514 1513 1512 1511 1511 1510 1510 1510 1509 1509 1508 1508 1508 1508 1508 1507 1507
1519 1519 1519 1519 1520 1520 1520 1520 1521 1521 1521 1521 1521 1521 1520 1520 1519 1519 1518 1517 1517 1516 1515 1514 1513 1513 1512 1511 1510 1509 1508 1507 1507 1507 1506 1506 1505 1505 1505 1505 1504 1504 1504
1516 1516 1517 1517 1517 1517 1518 1518 1518 1518 1518 1518 1518 1518 1518 1517 1517 1517 1516 1515 1514 1513 1513 1512 1510 1510 1509 1508 1507 1506 1505 1504 1504 1503 1503 1503 1502 1502 1501 1501 1501 1501 1501
1514 1514 1514 1514 1514 1515 1515 1515 1515 1515 1515 1515 1515 1515 1515 1515 1515 1514 1514 1513 1512 1511 1510 1509 1507 1506 1506 1505 1504 1503 1502 1501 1500 1500 1499 1499 1498 1498 1498 1498 1498 1498 1497
1512 1512 1511 1511 1511 1512 1512 1512 1512 1512 1512 1512 1512 1512 1512 1512 1511 1511 1511 1510 1509 1508 1507 1506 1504 1503 1502 1502 1501 1500 1499 1498 1497 1497 1496 1495 1495 1494 1494 1494 1494 1494 1494
1509 1509 1508 1508 1508 1509 1509 1509 1509 1509 1509 1509 1509 1509 1509 1508 1508 1507 1507 1506 1506 1505 1504 1503 1501 1500 1500 1499 1498 1497 1496 1495 1494 1493 1492 1490 1491 1490 1490 1490 1490 1490 1490
1507 1506 1506 1505 1505 1505 1506 1506 1506 1506 1506 1506 1506 1505 1505 1504 1504 1504 1503 1502 1502 1501 1500 1499 1498 1497 1497 1496 1495 1494 1493 1491 1490 1489 1489 1487 1486 1486 1486 1486 1486 1486 1486
1504 1504 1503 1503 1502 1502 1503 1503 1503 1502 1502 1502 1502 1502 1501 1501 1501 1500 1500 1498 1498 1497 1496 1496 1494 1493 1493 1492 1491 1490 1489 1487 1485 1484 1484 1483 1482 1482 1481 1481 1481 1482 1482
1501 1501 1501 1500 1500 1499 1500 1500 1500 1499 1499 1499 1499 1498 1498 1498 1498 1497 1496 1495 1494 1493 1492 1491 1490 1489 1488 1487 1486 1486 1484 1483 1481 1480 1480 1480 1479 1478 1477 1476 1477 1477 1477